TimeAKDT,TemperatureF,Dew PointF,Humidity,Sea Level PressureIn,VisibilityMPH,Wind Direction,Wind SpeedMPH,Gust SpeedMPH,PrecipitationIn,Events,Conditions,WindDirDegrees,DateUTC
12:53 AM,50.0,50.0,100,29.88,10.0,Calm,Calm,-,N/A,,Clear,0,2013-08-28 08:53:00
1:53 AM,50.0,50.0,100,29.88,10.0,Calm,Calm,-,N/A,,Clear,0,2013-08-28 09:53:00
2:53 AM,48.9,48.9,100,29.87,10.0,Calm,Calm,-,N/A,,Clear,0,2013-08-28 10:53:00
3:53 AM,50.0,50.0,100,29.87,10.0,NW,3.5,-,N/A,,Clear,310,2013-08-28 11:53:00
4:53 AM,51.1,51.1,100,29.87,10.0,Calm,Calm,-,N/A,,Clear,0,2013-08-28 12:53:00
5:53 AM,50.0,50.0,100,29.87,10.0,WNW,3.5,-,N/A,,Clear,300,2013-08-28 13:53:00
6:53 AM,52.0,52.0,100,29.88,10.0,NW,5.8,-,N/A,,Clear,310,2013-08-28 14:53:00
7:53 AM,55.0,55.0,100,29.87,10.0,NNW,10.4,-,N/A,,Clear,340,2013-08-28 15:53:00
8:53 AM,57.9,55.0,90,29.87,10.0,NNW,8.1,-,N/A,,Clear,340,2013-08-28 16:53:00
9:53 AM,60.1,55.0,83,29.88,10.0,NNW,10.4,-,N/A,,Clear,340,2013-08-28 17:53:00
10:53 AM,61.0,55.9,83,29.87,10.0,NNW,12.7,-,N/A,,Clear,340,2013-08-28 18:53:00
11:53 AM,61.0,55.9,83,29.87,10.0,NW,10.4,-,N/A,,Clear,310,2013-08-28 19:53:00
12:53 PM,62.1,55.9,80,29.87,10.0,NW,10.4,-,N/A,,Partly Cloudy,310,2013-08-28 20:53:00
1:53 PM,64.0,55.0,73,29.86,10.0,NW,9.2,-,N/A,,Partly Cloudy,310,2013-08-28 21:53:00
2:53 PM,64.0,54.0,70,29.86,10.0,NW,10.4,-,N/A,,Partly Cloudy,310,2013-08-28 22:53:00
3:53 PM,64.0,54.0,70,29.86,10.0,NW,9.2,-,N/A,,Partly Cloudy,320,2013-08-28 23:53:00
4:53 PM,64.0,52.0,65,29.86,10.0,NW,9.2,-,N/A,,Partly Cloudy,310,2013-08-29 00:53:00
5:53 PM,64.0,53.1,67,29.85,10.0,NW,5.8,-,N/A,,Clear,320,2013-08-29 01:53:00
6:53 PM,63.0,52.0,67,29.85,10.0,Calm,Calm,-,N/A,,Clear,0,2013-08-29 02:53:00
7:53 PM,57.9,54.0,87,29.86,10.0,Calm,Calm,-,N/A,,Clear,0,2013-08-29 03:53:00
8:53 PM,54.0,52.0,93,29.86,10.0,Calm,Calm,-,N/A,,Clear,0,2013-08-29 04:53:00
9:53 PM,52.0,50.0,93,29.86,10.0,Calm,Calm,-,N/A,,Clear,0,2013-08-29 05:53:00
10:53 PM,51.1,50.0,96,29.86,10.0,Calm,Calm,-,N/A,,Clear,0,2013-08-29 06:53:00
11:53 PM,51.1,48.9,92,29.85,10.0,Calm,Calm,-,N/A,,Partly Cloudy,0,2013-08-29 07:53:00